| time (UTC) | temp F | wind direction | speed MPH | gust MPH | rain 1hr in | rain 24hr in | rain mn in | humidity % | barometer mb |
| 20260902125826 | 59 | 135 | 0.0 | 2.0 | 0.00 | 0.02 | 0.00 | 83 | 1009.0 |
| 20260902125325 | 58 | 103 | 0.0 | 2.0 | 0.00 | 0.02 | 0.00 | 83 | 1009.1 |
| 20260902124816 | 58 | 124 | 0.0 | 4.0 | 0.00 | 0.02 | 0.00 | 84 | 1009.1 |
| 20260902124314 | 58 | 104 | 1.0 | 4.0 | 0.00 | 0.02 | 0.00 | 84 | 1009.2 |
| 20260902123816 | 58 | 120 | 0.0 | 0.0 | 0.00 | 0.02 | 0.00 | 84 | 1009.2 |
| 20260902123322 | 58 | 82 | 0.0 | 0.0 | 0.00 | 0.02 | 0.00 | 84 | 1009.3 |
| 20260902122825 | 58 | 94 | 0.0 | 0.0 | 0.00 | 0.02 | 0.00 | 84 | 1009.4 |
| 20260902122338 | 58 | 72 | 0.0 | 2.0 | 0.00 | 0.02 | 0.00 | 84 | 1009.5 |
| 20260902121820 | 58 | 24 | 0.0 | 2.0 | 0.00 | 0.02 | 0.00 | 84 | 1009.5 |
| 20260902121320 | 58 | 39 | 0.0 | 0.0 | 0.00 | 0.02 | 0.00 | 84 | 1009.7 |
| 20260902120822 | 58 | 49 | 0.0 | 0.0 | 0.00 | 0.02 | 0.00 | 84 | 1009.7 |
| 20260902120328 | 58 | 111 | 0.0 | 0.0 | 0.00 | 0.02 | 0.00 | 84 | 1009.9 |
| 20260902115830 | 58 | 83 | 0.0 | 0.0 | 0.00 | 0.02 | 0.00 | 85 | 1009.8 |
| 20260902115337 | 58 | 83 | 0.0 | 0.0 | 0.00 | 0.02 | 0.00 | 84 | 1009.9 |
| 20260902114826 | 58 | 111 | 0.0 | 0.0 | 0.00 | 0.02 | 0.00 | 85 | 1010.0 |
| 20260902114325 | 58 | 111 | 0.0 | 1.0 | 0.00 | 0.02 | 0.00 | 85 | 1010.0 |
| 20260902113835 | 58 | 75 | 0.0 | 1.0 | 0.00 | 0.02 | 0.00 | 85 | 1010.1 |
| 20260902113314 | 58 | 71 | 0.0 | 0.0 | 0.00 | 0.02 | 0.00 | 86 | 1010.1 |
| 20260902112816 | 58 | 71 | 0.0 | 0.0 | 0.00 | 0.02 | 0.00 | 86 | 1010.2 |
| 20260902112316 | 58 | 71 | 0.0 | 0.0 | 0.00 | 0.02 | 0.00 | 86 | 1010.1 |
| 20260902111852 | 58 | 71 | 0.0 | 0.0 | 0.00 | 0.02 | 0.00 | 86 | 1010.2 |
| 20260902111339 | 58 | 71 | 0.0 | 0.0 | 0.00 | 0.02 | 0.00 | 86 | 1010.3 |
| 20260902110841 | 58 | 71 | 0.0 | 0.0 | 0.00 | 0.02 | 0.00 | 86 | 1010.3 |
| 20260902110347 | 58 | 71 | 0.0 | 0.0 | 0.00 | 0.02 | 0.00 | 87 | 1010.3 |
| 20260902105836 | 58 | 71 | 0.0 | 0.0 | 0.00 | 0.02 | 0.00 | 86 | 1010.4 |
| 20260902105335 | 58 | 71 | 0.0 | 0.0 | 0.00 | 0.02 | 0.00 | 86 | 1010.4 |
| 20260902104845 | 58 | 71 | 0.0 | 0.0 | 0.00 | 0.02 | 0.00 | 86 | 1010.4 |
| 20260902104351 | 58 | 71 | 0.0 | 0.0 | 0.00 | 0.02 | 0.00 | 86 | 1010.5 |
| 20260902103900 | 58 | 71 | 0.0 | 0.0 | 0.00 | 0.02 | 0.00 | 87 | 1010.5 |
| 20260902102819 | 58 | 70 | 0.0 | 0.0 | 0.00 | 0.02 | 0.00 | 87 | 1010.5 |
| 20260902102325 | 58 | 340 | 0.0 | 0.0 | 0.00 | 0.02 | 0.00 | 86 | 1010.5 |
| 20260902101827 | 58 | 76 | 0.0 | 0.0 | 0.00 | 0.02 | 0.00 | 86 | 1010.6 |
| 20260902101326 | 58 | 76 | 0.0 | 0.0 | 0.00 | 0.02 | 0.00 | 86 | 1010.6 |
| 20260902100815 | 58 | 76 | 0.0 | 0.0 | 0.00 | 0.02 | 0.00 | 86 | 1010.7 |
| 20260902100314 | 58 | 141 | 0.0 | 0.0 | 0.00 | 0.02 | 0.00 | 86 | 1010.6 |
| 20260902095816 | 58 | 92 | 0.0 | 2.0 | 0.00 | 0.02 | 0.00 | 86 | 1010.6 |
| 20260902095321 | 58 | 115 | 0.0 | 1.0 | 0.00 | 0.02 | 0.00 | 86 | 1010.6 |
| 20260902094823 | 58 | 137 | 0.0 | 1.0 | 0.00 | 0.02 | 0.00 | 86 | 1010.7 |
| 20260902094351 | 58 | 122 | 0.0 | 1.0 | 0.00 | 0.02 | 0.00 | 87 | 1010.8 |
| 20260902093900 | 58 | 130 | 0.0 | 1.0 | 0.00 | 0.02 | 0.00 | 87 | 1010.7 |
| 20260902093338 | 58 | 118 | 0.0 | 3.0 | 0.00 | 0.02 | 0.00 | 87 | 1010.8 |
| 20260902092847 | 58 | 127 | 0.0 | 3.0 | 0.00 | 0.02 | 0.00 | 87 | 1010.9 |
| 20260902092334 | 58 | 132 | 0.0 | 3.0 | 0.00 | 0.02 | 0.00 | 88 | 1010.9 |
| 20260902091845 | 58 | 192 | 0.0 | 0.0 | 0.00 | 0.02 | 0.00 | 88 | 1011.0 |
| 20260902091351 | 58 | 329 | 0.0 | 1.0 | 0.00 | 0.02 | 0.00 | 88 | 1011.0 |
| 20260902090834 | 57 | 347 | 0.0 | 1.0 | 0.00 | 0.02 | 0.00 | 89 | 1011.0 |
| 20260902090319 | 57 | 346 | 0.0 | 0.0 | 0.00 | 0.02 | 0.00 | 90 | 1011.2 |
| 20260902085821 | 57 | 25 | 0.0 | 0.0 | 0.00 | 0.02 | 0.00 | 90 | 1011.2 |
| 20260902085321 | 57 | 33 | 0.0 | 0.0 | 0.00 | 0.02 | 0.00 | 90 | 1011.3 |
| 20260902084830 | 57 | 4 | 0.0 | 0.0 | 0.00 | 0.02 | 0.00 | 90 | 1011.3 |
| 20260902084330 | 57 | 23 | 0.0 | 0.0 | 0.00 | 0.02 | 0.00 | 90 | 1011.4 |
| 20260902083839 | 57 | 23 | 0.0 | 0.0 | 0.00 | 0.02 | 0.00 | 89 | 1011.3 |
| 20260902083319 | 57 | 23 | 0.0 | 0.0 | 0.00 | 0.02 | 0.00 | 89 | 1011.4 |
| 20260902082821 | 58 | 23 | 0.0 | 0.0 | 0.00 | 0.02 | 0.00 | 89 | 1011.3 |
| 20260902082327 | 58 | 333 | 0.0 | 0.0 | 0.00 | 0.02 | 0.00 | 89 | 1011.3 |
| 20260902081814 | 58 | 9 | 0.0 | 0.0 | 0.00 | 0.02 | 0.00 | 89 | 1011.4 |
| 20260902081313 | 58 | 341 | 0.0 | 1.0 | 0.00 | 0.02 | 0.00 | 89 | 1011.3 |
| 20260902080822 | 58 | 323 | 0.0 | 1.0 | 0.00 | 0.02 | 0.00 | 89 | 1011.3 |
| 20260902080322 | 58 | 148 | 0.0 | 3.0 | 0.00 | 0.02 | 0.00 | 89 | 1011.3 |
| 20260902075824 | 58 | 150 | 0.0 | 3.0 | 0.00 | 0.02 | 0.00 | 89 | 1011.3 |
| 20260902075331 | 58 | 304 | 0.0 | 0.0 | 0.00 | 0.02 | 0.00 | 89 | 1011.3 |
| 20260902074813 | 58 | 304 | 0.0 | 0.0 | 0.00 | 0.02 | 0.00 | 89 | 1011.3 |
| 20260902074316 | 58 | 304 | 0.0 | 0.0 | 0.00 | 0.02 | 0.00 | 89 | 1011.4 |
| 20260902073822 | 59 | 304 | 0.0 | 0.0 | 0.00 | 0.02 | 0.00 | 88 | 1011.4 |
| 20260902073322 | 59 | 304 | 0.0 | 0.0 | 0.00 | 0.02 | 0.00 | 88 | 1011.5 |
| 20260902072832 | 59 | 356 | 0.0 | 4.0 | 0.00 | 0.02 | 0.00 | 87 | 1011.6 |
| 20260902072312 | 59 | 231 | 0.0 | 4.0 | 0.00 | 0.02 | 0.00 | 86 | 1011.6 |
| 20260902071821 | 60 | 153 | 0.0 | 5.0 | 0.00 | 0.02 | 0.00 | 85 | 1011.7 |
| 20260902071328 | 60 | 143 | 0.0 | 5.0 | 0.00 | 0.02 | 0.00 | 84 | 1011.8 |
| 20260902070818 | 60 | 307 | 0.0 | 0.0 | 0.00 | 0.02 | 0.00 | 84 | 1011.8 |
| 20260902070316 | 60 | 306 | 0.0 | 1.0 | 0.00 | 0.02 | 0.02 | 84 | 1011.8 |
| 20260902065819 | 60 | 306 | 0.0 | 1.0 | 0.00 | 0.02 | 0.02 | 84 | 1011.9 |
| 20260902065325 | 59 | 321 | 0.0 | 0.0 | 0.00 | 0.02 | 0.02 | 84 | 1011.9 |
| 20260902064827 | 59 | 321 | 0.0 | 0.0 | 0.00 | 0.02 | 0.02 | 84 | 1012.0 |
| 20260902064314 | 59 | 321 | 0.0 | 0.0 | 0.00 | 0.02 | 0.02 | 84 | 1012.0 |
| 20260902063816 | 59 | 321 | 0.0 | 0.0 | 0.00 | 0.02 | 0.02 | 84 | 1012.0 |
| 20260902063321 | 59 | 75 | 0.0 | 0.0 | 0.00 | 0.02 | 0.02 | 84 | 1012.0 |
| 20260902062829 | 59 | 298 | 0.0 | 0.0 | 0.00 | 0.02 | 0.02 | 83 | 1012.0 |
| 20260902062331 | 59 | 322 | 0.0 | 0.0 | 0.00 | 0.02 | 0.02 | 83 | 1011.9 |
| 20260902061813 | 60 | 327 | 0.0 | 0.0 | 0.00 | 0.02 | 0.02 | 82 | 1011.8 |
| 20260902060828 | 60 | 327 | 0.0 | 0.0 | 0.00 | 0.02 | 0.02 | 82 | 1011.8 |
| 20260902060334 | 60 | 122 | 0.0 | 0.0 | 0.00 | 0.02 | 0.02 | 82 | 1011.9 |
| 20260902055816 | 60 | 171 | 0.0 | 0.0 | 0.00 | 0.02 | 0.02 | 82 | 1012.0 |
| 20260902055314 | 60 | 4 | 0.0 | 0.0 | 0.00 | 0.02 | 0.02 | 82 | 1012.1 |
| 20260902054824 | 60 | 1 | 0.0 | 0.0 | 0.00 | 0.02 | 0.02 | 82 | 1012.1 |
| 20260902054323 | 60 | 117 | 0.0 | 5.0 | 0.00 | 0.02 | 0.02 | 82 | 1012.1 |
| 20260902053826 | 61 | 70 | 0.0 | 5.0 | 0.00 | 0.02 | 0.02 | 81 | 1012.1 |
| 20260902053332 | 61 | 79 | 0.0 | 0.0 | 0.00 | 0.02 | 0.02 | 81 | 1012.2 |
| 20260902052819 | 61 | 79 | 0.0 | 0.0 | 0.00 | 0.02 | 0.02 | 81 | 1012.3 |
| 20260902052319 | 61 | 193 | 0.0 | 0.0 | 0.00 | 0.02 | 0.02 | 82 | 1012.2 |
| 20260902051827 | 61 | 324 | 0.0 | 0.0 | 0.00 | 0.02 | 0.02 | 81 | 1012.2 |
| 20260902051327 | 61 | 324 | 0.0 | 0.0 | 0.00 | 0.02 | 0.02 | 81 | 1012.2 |
| 20260902050836 | 61 | 4 | 0.0 | 0.0 | 0.00 | 0.02 | 0.02 | 81 | 1012.2 |
| 20260902050316 | 61 | 314 | 0.0 | 0.0 | 0.00 | 0.02 | 0.02 | 82 | 1012.1 |
| 20260902045818 | 61 | 311 | 0.0 | 0.0 | 0.00 | 0.02 | 0.02 | 81 | 1012.1 |
| 20260902045318 | 61 | 146 | 0.0 | 0.0 | 0.00 | 0.02 | 0.02 | 81 | 1012.2 |
| 20260902044827 | 61 | 13 | 0.0 | 0.0 | 0.00 | 0.02 | 0.02 | 81 | 1012.2 |
| 20260902044326 | 61 | 291 | 0.0 | 2.0 | 0.00 | 0.02 | 0.02 | 81 | 1012.2 |
| 20260902043836 | 61 | 255 | 0.0 | 2.0 | 0.00 | 0.02 | 0.02 | 81 | 1012.2 |
| 20260902043334 | 61 | 352 | 0.0 | 0.0 | 0.00 | 0.02 | 0.02 | 81 | 1012.2 |
| 20260902042839 | 61 | 303 | 0.0 | 0.0 | 0.00 | 0.02 | 0.02 | 81 | 1012.1 |
| 20260902042344 | 61 | 316 | 0.0 | 0.0 | 0.00 | 0.02 | 0.02 | 80 | 1012.2 |
| 20260902041834 | 61 | 314 | 0.0 | 0.0 | 0.00 | 0.02 | 0.02 | 80 | 1012.1 |
| 20260902041340 | 61 | 147 | 0.0 | 0.0 | 0.00 | 0.02 | 0.02 | 80 | 1012.1 |
| 20260902040845 | 62 | 147 | 0.0 | 0.0 | 0.00 | 0.02 | 0.02 | 79 | 1012.1 |
| 20260902040351 | 62 | 302 | 0.0 | 1.0 | 0.00 | 0.02 | 0.02 | 79 | 1012.1 |
| 20260902035900 | 62 | 302 | 0.0 | 1.0 | 0.00 | 0.02 | 0.02 | 78 | 1012.1 |
| 20260902035321 | 62 | 308 | 0.0 | 0.0 | 0.00 | 0.02 | 0.02 | 78 | 1012.1 |
| 20260902034820 | 62 | 308 | 0.0 | 0.0 | 0.00 | 0.02 | 0.02 | 78 | 1012.1 |
| 20260902034318 | 62 | 311 | 0.0 | 0.0 | 0.00 | 0.02 | 0.02 | 78 | 1012.0 |
| 20260902033916 | 62 | 280 | 0.0 | 2.0 | 0.00 | 0.02 | 0.02 | 78 | 1012.0 |
| 20260902033330 | 62 | 349 | 0.0 | 2.0 | 0.00 | 0.02 | 0.02 | 78 | 1012.0 |
| 20260902032812 | 62 | 275 | 0.0 | 0.0 | 0.00 | 0.02 | 0.02 | 78 | 1012.0 |
| 20260902032311 | 62 | 311 | 0.0 | 0.0 | 0.00 | 0.02 | 0.02 | 77 | 1012.0 |
| 20260902031321 | 62 | 345 | 0.0 | 1.0 | 0.00 | 0.02 | 0.02 | 77 | 1011.9 |
| 20260902030830 | 62 | 309 | 0.0 | 1.0 | 0.00 | 0.02 | 0.02 | 76 | 1011.9 |
| 20260902030330 | 62 | 41 | 0.0 | 2.0 | 0.00 | 0.02 | 0.02 | 76 | 1011.9 |
| 20260902025839 | 63 | 233 | 0.0 | 2.0 | 0.00 | 0.02 | 0.02 | 76 | 1011.9 |
| 20260902025319 | 63 | 311 | 0.0 | 6.0 | 0.00 | 0.02 | 0.02 | 76 | 1011.9 |
| 20260902024820 | 63 | 51 | 0.0 | 6.0 | 0.00 | 0.02 | 0.02 | 76 | 1011.9 |
| 20260902024319 | 63 | 305 | 0.0 | 1.0 | 0.00 | 0.02 | 0.02 | 76 | 1011.8 |
| 20260902023828 | 63 | 301 | 0.0 | 1.0 | 0.00 | 0.02 | 0.02 | 76 | 1011.8 |
| 20260902023327 | 63 | 293 | 0.0 | 0.0 | 0.00 | 0.02 | 0.02 | 76 | 1011.9 |
| 20260902022836 | 63 | 327 | 0.0 | 0.0 | 0.00 | 0.02 | 0.02 | 75 | 1011.8 |
| 20260902022315 | 63 | 308 | 0.0 | 2.0 | 0.00 | 0.02 | 0.02 | 75 | 1011.7 |
| 20260902021818 | 63 | 307 | 0.0 | 0.0 | 0.00 | 0.02 | 0.02 | 75 | 1011.8 |
| 20260902021324 | 64 | 296 | 0.0 | 0.0 | 0.00 | 0.02 | 0.02 | 75 | 1011.7 |
| 20260902020826 | 64 | 290 | 0.0 | 2.0 | 0.00 | 0.02 | 0.02 | 75 | 1011.7 |
| 20260902020326 | 64 | 301 | 0.0 | 3.0 | 0.00 | 0.02 | 0.02 | 74 | 1011.7 |
| 20260902015835 | 64 | 140 | 0.0 | 3.0 | 0.00 | 0.02 | 0.02 | 74 | 1011.7 |
| 20260902015315 | 64 | 314 | 0.0 | 4.0 | 0.00 | 0.02 | 0.02 | 74 | 1011.7 |
| 20260902014818 | 64 | 296 | 0.0 | 4.0 | 0.00 | 0.02 | 0.02 | 74 | 1011.6 |
| 20260902014330 | 64 | 345 | 0.0 | 0.0 | 0.00 | 0.02 | 0.02 | 74 | 1011.6 |
| 20260902013813 | 64 | 289 | 0.0 | 0.0 | 0.00 | 0.02 | 0.02 | 74 | 1011.6 |
| 20260902013312 | 64 | 321 | 0.0 | 4.0 | 0.00 | 0.02 | 0.02 | 74 | 1011.6 |
| 20260902012822 | 64 | 308 | 0.0 | 4.0 | 0.00 | 0.02 | 0.02 | 74 | 1011.5 |
| 20260902012321 | 65 | 309 | 0.0 | 2.0 | 0.00 | 0.02 | 0.02 | 74 | 1011.6 |
| 20260902011823 | 65 | 281 | 0.0 | 6.0 | 0.00 | 0.02 | 0.02 | 74 | 1011.6 |
| 20260902011330 | 65 | 29 | 1.0 | 6.0 | 0.00 | 0.02 | 0.02 | 73 | 1011.6 |
| 20260902010832 | 65 | 288 | 0.0 | 1.0 | 0.00 | 0.02 | 0.02 | 72 | 1011.5 |
| 20260902010314 | 65 | 323 | 0.0 | 3.0 | 0.00 | 0.02 | 0.02 | 71 | 1011.4 |
| 20260902005819 | 65 | 345 | 0.0 | 4.0 | 0.00 | 0.02 | 0.02 | 70 | 1011.4 |
| 20260902005320 | 65 | 349 | 0.0 | 4.0 | 0.00 | 0.02 | 0.02 | 70 | 1011.4 |
| 20260902004829 | 66 | 293 | 0.0 | 2.0 | 0.00 | 0.02 | 0.02 | 70 | 1011.4 |
| 20260902004327 | 66 | 63 | 0.0 | 7.0 | 0.00 | 0.02 | 0.02 | 70 | 1011.4 |
| 20260902003814 | 66 | 199 | 1.0 | 7.0 | 0.00 | 0.02 | 0.02 | 70 | 1011.5 |
| 20260902003320 | 66 | 169 | 0.0 | 4.0 | 0.00 | 0.02 | 0.02 | 70 | 1011.3 |
| 20260902002823 | 66 | 205 | 0.0 | 4.0 | 0.00 | 0.02 | 0.02 | 70 | 1011.3 |
| 20260902002322 | 66 | 317 | 0.0 | 4.0 | 0.00 | 0.02 | 0.02 | 70 | 1011.3 |
| 20260902001831 | 66 | 320 | 0.0 | 7.0 | 0.00 | 0.02 | 0.02 | 70 | 1011.2 |
| 20260902001331 | 66 | 77 | 0.0 | 7.0 | 0.00 | 0.02 | 0.02 | 70 | 1011.2 |
| 20260902000813 | 66 | 151 | 2.0 | 7.0 | 0.00 | 0.02 | 0.02 | 69 | 1011.2 |
| 20260902000322 | 66 | 89 | 0.0 | 3.0 | 0.00 | 0.02 | 0.02 | 70 | 1011.2 |
| 20260901235820 | 66 | 309 | 0.0 | 3.0 | 0.00 | 0.02 | 0.02 | 69 | 1011.2 |
| 20260901235316 | 66 | 154 | 0.0 | 3.0 | 0.00 | 0.02 | 0.02 | 69 | 1011.3 |
| 20260901234825 | 66 | 334 | 0.0 | 5.0 | 0.00 | 0.02 | 0.02 | 69 | 1011.3 |
| 20260901234324 | 66 | 345 | 0.0 | 5.0 | 0.00 | 0.02 | 0.02 | 69 | 1011.4 |
| 20260901233813 | 66 | 346 | 1.0 | 5.0 | 0.00 | 0.02 | 0.02 | 69 | 1011.4 |
| 20260901233319 | 66 | 134 | 0.0 | 6.0 | 0.00 | 0.02 | 0.02 | 70 | 1011.5 |
| 20260901232815 | 66 | 296 | 0.0 | 6.0 | 0.00 | 0.02 | 0.02 | 70 | 1011.5 |
| 20260901232320 | 65 | 170 | 0.0 | 5.0 | 0.00 | 0.02 | 0.02 | 70 | 1011.4 |
| 20260901231829 | 66 | 257 | 0.0 | 0.0 | 0.00 | 0.02 | 0.02 | 70 | 1011.5 |
| 20260901231333 | 66 | 301 | 0.0 | 2.0 | 0.00 | 0.02 | 0.02 | 71 | 1011.6 |
| 20260901230814 | 66 | 300 | 0.0 | 2.0 | 0.00 | 0.02 | 0.02 | 70 | 1011.7 |
| 20260901230320 | 66 | 310 | 0.0 | 5.0 | 0.00 | 0.02 | 0.02 | 71 | 1011.7 |
| 20260901225822 | 66 | 301 | 0.0 | 3.0 | 0.00 | 0.02 | 0.02 | 71 | 1011.7 |
| 20260901225328 | 66 | 155 | 0.0 | 0.0 | 0.00 | 0.02 | 0.02 | 72 | 1011.7 |
| 20260901224831 | 65 | 129 | 0.0 | 0.0 | 0.00 | 0.02 | 0.02 | 72 | 1011.7 |
| 20260901224330 | 65 | 292 | 0.0 | 0.0 | 0.00 | 0.02 | 0.02 | 72 | 1011.8 |
| 20260901223820 | 65 | 306 | 0.0 | 0.0 | 0.00 | 0.02 | 0.02 | 72 | 1011.8 |
| 20260901223320 | 65 | 306 | 0.0 | 1.0 | 0.00 | 0.02 | 0.02 | 72 | 1011.8 |
| 20260901222822 | 65 | 349 | 0.0 | 1.0 | 0.00 | 0.02 | 0.02 | 73 | 1011.8 |
| 20260901222321 | 65 | 300 | 0.0 | 4.0 | 0.00 | 0.02 | 0.02 | 73 | 1011.8 |
| 20260901221831 | 65 | 169 | 0.0 | 0.0 | 0.00 | 0.02 | 0.02 | 73 | 1011.8 |
| 20260901221351 | 65 | 346 | 0.0 | 0.0 | 0.00 | 0.02 | 0.02 | 75 | 1011.8 |
| 20260901220839 | 65 | 40 | 0.0 | 0.0 | 0.00 | 0.02 | 0.02 | 75 | 1011.8 |
| 20260901220337 | 64 | 172 | 0.0 | 0.0 | 0.00 | 0.02 | 0.02 | 76 | 1011.8 |
| 20260901215846 | 64 | 172 | 0.0 | 0.0 | 0.00 | 0.02 | 0.02 | 76 | 1011.7 |
| 20260901215333 | 64 | 335 | 0.0 | 0.0 | 0.00 | 0.02 | 0.02 | 76 | 1011.7 |
| 20260901214843 | 64 | 153 | 0.0 | 0.0 | 0.00 | 0.02 | 0.02 | 76 | 1011.7 |
| 20260901214347 | 64 | 298 | 0.0 | 0.0 | 0.00 | 0.02 | 0.02 | 76 | 1011.8 |
| 20260901213836 | 64 | 210 | 0.0 | 0.0 | 0.00 | 0.02 | 0.02 | 75 | 1011.8 |
| 20260901213313 | 64 | 308 | 0.0 | 0.0 | 0.00 | 0.02 | 0.02 | 74 | 1011.8 |
| 20260901212824 | 64 | 32 | 0.0 | 0.0 | 0.00 | 0.02 | 0.02 | 74 | 1011.8 |
| 20260901212319 | 64 | 309 | 0.0 | 0.0 | 0.00 | 0.02 | 0.02 | 75 | 1011.8 |
| 20260901211821 | 64 | 334 | 0.0 | 0.0 | 0.00 | 0.02 | 0.02 | 75 | 1011.8 |
| 20260901211335 | 64 | 31 | 0.0 | 1.0 | 0.00 | 0.02 | 0.02 | 76 | 1011.8 |
| 20260901210818 | 64 | 305 | 0.0 | 3.0 | 0.00 | 0.02 | 0.02 | 76 | 1011.8 |
| 20260901210318 | 64 | 330 | 0.0 | 3.0 | 0.00 | 0.02 | 0.02 | 76 | 1011.8 |
| 20260901205827 | 64 | 173 | 0.0 | 2.0 | 0.00 | 0.02 | 0.02 | 77 | 1011.8 |
| 20260901205326 | 64 | 358 | 0.0 | 2.0 | 0.00 | 0.02 | 0.02 | 77 | 1011.8 |
| 20260901204836 | 64 | 234 | 0.0 | 0.0 | 0.00 | 0.02 | 0.02 | 78 | 1011.8 |
| 20260901204315 | 64 | 299 | 0.0 | 0.0 | 0.00 | 0.02 | 0.02 | 77 | 1011.9 |
| 20260901203818 | 64 | 304 | 0.0 | 0.0 | 0.00 | 0.02 | 0.02 | 77 | 1011.9 |
| 20260901203317 | 64 | 307 | 0.0 | 0.0 | 0.00 | 0.02 | 0.02 | 77 | 1012.0 |
| 20260901202826 | 64 | 318 | 0.0 | 0.0 | 0.00 | 0.02 | 0.02 | 78 | 1011.9 |
| 20260901202327 | 64 | 136 | 0.0 | 0.0 | 0.00 | 0.02 | 0.02 | 79 | 1011.9 |
| 20260901201836 | 63 | 132 | 0.0 | 0.0 | 0.00 | 0.02 | 0.02 | 79 | 1011.9 |
| 20260901201316 | 63 | 32 | 0.0 | 4.0 | 0.00 | 0.02 | 0.02 | 78 | 1012.0 |
| 20260901200816 | 63 | 248 | 0.0 | 2.0 | 0.00 | 0.02 | 0.02 | 79 | 1012.0 |
| 20260901200321 | 63 | 324 | 0.0 | 2.0 | 0.00 | 0.03 | 0.02 | 79 | 1012.0 |
| 20260901195830 | 63 | 130 | 0.0 | 2.0 | 0.00 | 0.03 | 0.02 | 79 | 1012.0 |
| 20260901195315 | 64 | 254 | 0.0 | 1.0 | 0.00 | 0.03 | 0.02 | 79 | 1011.9 |
| 20260901194824 | 64 | 360 | 0.0 | 0.0 | 0.00 | 0.03 | 0.02 | 78 | 1011.9 |
| 20260901194330 | 64 | 175 | 0.0 | 0.0 | 0.00 | 0.03 | 0.02 | 80 | 1012.0 |
| 20260901193838 | 63 | 174 | 0.0 | 4.0 | 0.00 | 0.03 | 0.02 | 80 | 1012.0 |
| 20260901193316 | 63 | 283 | 0.0 | 4.0 | 0.00 | 0.03 | 0.02 | 79 | 1012.1 |
| 20260901192821 | 64 | 311 | 0.0 | 2.0 | 0.00 | 0.03 | 0.02 | 78 | 1012.2 |
| 20260901192320 | 64 | 212 | 0.0 | 2.0 | 0.00 | 0.03 | 0.02 | 80 | 1012.2 |
| 20260901191830 | 64 | 144 | 0.0 | 2.0 | 0.00 | 0.03 | 0.02 | 81 | 1012.2 |
| 20260901191313 | 63 | 121 | 0.0 | 3.0 | 0.00 | 0.03 | 0.02 | 81 | 1012.4 |
| 20260901190835 | 63 | 189 | 0.0 | 3.0 | 0.00 | 0.03 | 0.02 | 83 | 1012.4 |
| 20260901190319 | 63 | 180 | 0.0 | 2.0 | 0.00 | 0.03 | 0.02 | 84 | 1012.4 |
| 20260901185821 | 62 | 130 | 0.0 | 2.0 | 0.00 | 0.03 | 0.02 | 85 | 1012.4 |
| 20260901185328 | 62 | 41 | 0.0 | 1.0 | 0.00 | 0.03 | 0.02 | 86 | 1012.4 |
| 20260901184831 | 61 | 38 | 0.0 | 2.0 | 0.00 | 0.03 | 0.02 | 87 | 1012.5 |
| 20260901184331 | 62 | 293 | 0.0 | 2.0 | 0.00 | 0.03 | 0.02 | 88 | 1012.5 |
| 20260901183813 | 61 | 295 | 0.0 | 0.0 | 0.00 | 0.03 | 0.02 | 90 | 1012.5 |
| 20260901183319 | 61 | 295 | 0.0 | 2.0 | 0.00 | 0.03 | 0.02 | 90 | 1012.6 |
| 20260901182822 | 60 | 188 | 0.0 | 2.0 | 0.00 | 0.03 | 0.02 | 90 | 1012.6 |
| 20260901182328 | 60 | 196 | 0.0 | 2.0 | 0.00 | 0.03 | 0.02 | 91 | 1012.6 |
| 20260901181818 | 60 | 82 | 0.0 | 2.0 | 0.00 | 0.03 | 0.02 | 91 | 1012.6 |
| 20260901181317 | 60 | 17 | 0.0 | 1.0 | 0.00 | 0.03 | 0.02 | 92 | 1012.6 |
| 20260901180826 | 60 | 206 | 0.0 | 1.0 | 0.00 | 0.03 | 0.02 | 92 | 1012.6 |
| 20260901180312 | 59 | 130 | 0.0 | 1.0 | 0.00 | 0.03 | 0.02 | 92 | 1012.6 |
| 20260901175815 | 59 | 92 | 0.0 | 0.0 | 0.00 | 0.03 | 0.02 | 92 | 1012.6 |
| 20260901175337 | 59 | 139 | 0.0 | 0.0 | 0.00 | 0.03 | 0.02 | 92 | 1012.7 |
| 20260901174846 | 59 | 165 | 0.0 | 0.0 | 0.00 | 0.03 | 0.02 | 92 | 1012.7 |
| 20260901174345 | 59 | 186 | 0.0 | 0.0 | 0.00 | 0.03 | 0.02 | 92 | 1012.7 |
| 20260901173850 | 58 | 248 | 0.0 | 2.0 | 0.00 | 0.03 | 0.02 | 92 | 1012.6 |
| 20260901173356 | 58 | 329 | 0.0 | 2.0 | 0.00 | 0.03 | 0.02 | 92 | 1012.6 |
| 20260901172846 | 58 | 165 | 0.0 | 1.0 | 0.01 | 0.03 | 0.02 | 92 | 1012.6 |
| 20260901172352 | 58 | 306 | 0.0 | 0.0 | 0.01 | 0.03 | 0.02 | 92 | 1012.6 |
| 20260901171834 | 58 | 310 | 0.0 | 0.0 | 0.01 | 0.03 | 0.02 | 92 | 1012.5 |
| 20260901171319 | 58 | 317 | 0.0 | 1.0 | 0.01 | 0.03 | 0.02 | 92 | 1012.5 |
| 20260901170821 | 58 | 51 | 0.0 | 1.0 | 0.01 | 0.03 | 0.02 | 92 | 1012.4 |
| 20260901170328 | 57 | 302 | 0.0 | 0.0 | 0.01 | 0.03 | 0.02 | 92 | 1012.5 |
| 20260901165830 | 57 | 338 | 0.0 | 0.0 | 0.01 | 0.03 | 0.02 | 92 | 1012.5 |
| 20260901165337 | 57 | 299 | 0.0 | 0.0 | 0.01 | 0.03 | 0.02 | 92 | 1012.4 |
| 20260901164819 | 57 | 304 | 0.0 | 2.0 | 0.02 | 0.03 | 0.02 | 92 | 1012.5 |
| 20260901164318 | 57 | 319 | 0.0 | 2.0 | 0.02 | 0.03 | 0.02 | 92 | 1012.4 |
| 20260901163820 | 57 | 294 | 0.0 | 1.0 | 0.02 | 0.03 | 0.02 | 92 | 1012.5 |
| 20260901163326 | 57 | 150 | 0.0 | 1.0 | 0.02 | 0.03 | 0.02 | 92 | 1012.4 |
| 20260901162829 | 57 | 224 | 0.0 | 1.0 | 0.01 | 0.02 | 0.01 | 92 | 1012.6 |
| 20260901162334 | 57 | 300 | 0.0 | 1.0 | 0.01 | 0.02 | 0.01 | 92 | 1012.5 |
| 20260901161816 | 57 | 345 | 0.0 | 1.0 | 0.01 | 0.02 | 0.01 | 92 | 1012.5 |
| 20260901161315 | 57 | 305 | 0.0 | 0.0 | 0.01 | 0.02 | 0.01 | 92 | 1012.5 |
| 20260901160824 | 56 | 307 | 0.0 | 0.0 | 0.01 | 0.02 | 0.01 | 92 | 1012.5 |
| 20260901160324 | 56 | 304 | 0.0 | 0.0 | 0.01 | 0.02 | 0.01 | 92 | 1012.4 |
| 20260901155826 | 56 | 239 | 0.0 | 2.0 | 0.01 | 0.02 | 0.01 | 92 | 1012.4 |
| 20260901155317 | 56 | 301 | 0.0 | 2.0 | 0.01 | 0.02 | 0.01 | 92 | 1012.4 |
| 20260901154820 | 56 | 300 | 0.0 | 0.0 | 0.00 | 0.01 | 0.00 | 92 | 1012.5 |
| 20260901154318 | 56 | 309 | 0.0 | 0.0 | 0.00 | 0.01 | 0.00 | 92 | 1012.5 |
| 20260901153326 | 56 | 44 | 0.0 | 0.0 | 0.00 | 0.01 | 0.00 | 92 | 1012.5 |
| 20260901152835 | 56 | 322 | 0.0 | 0.0 | 0.00 | 0.01 | 0.00 | 92 | 1012.4 |
| 20260901152315 | 56 | 161 | 0.0 | 1.0 | 0.00 | 0.01 | 0.00 | 92 | 1012.4 |
| 20260901151817 | 56 | 231 | 0.0 | 1.0 | 0.00 | 0.01 | 0.00 | 92 | 1012.4 |
| 20260901151324 | 56 | 350 | 0.0 | 0.0 | 0.00 | 0.01 | 0.00 | 91 | 1012.3 |
| 20260901150826 | 57 | 58 | 0.0 | 0.0 | 0.00 | 0.01 | 0.00 | 91 | 1012.3 |
| 20260901150326 | 57 | 321 | 0.0 | 0.0 | 0.00 | 0.01 | 0.00 | 91 | 1012.2 |
| 20260901145835 | 57 | 310 | 0.0 | 0.0 | 0.00 | 0.01 | 0.00 | 91 | 1012.1 |
| 20260901145315 | 57 | 143 | 0.0 | 0.0 | 0.00 | 0.01 | 0.00 | 90 | 1012.1 |
| 20260901144817 | 57 | 240 | 0.0 | 1.0 | 0.00 | 0.01 | 0.00 | 90 | 1012.1 |
| 20260901144323 | 57 | 173 | 0.0 | 0.0 | 0.00 | 0.01 | 0.00 | 90 | 1012.0 |
| 20260901143825 | 57 | 309 | 0.0 | 0.0 | 0.00 | 0.01 | 0.00 | 90 | 1012.0 |
| 20260901143333 | 57 | 110 | 0.0 | 0.0 | 0.00 | 0.01 | 0.00 | 90 | 1012.0 |
| 20260901142814 | 57 | 293 | 0.0 | 0.0 | 0.00 | 0.01 | 0.00 | 90 | 1012.0 |
| 20260901142314 | 57 | 321 | 0.0 | 0.0 | 0.00 | 0.01 | 0.00 | 90 | 1012.0 |
| 20260901141816 | 57 | 163 | 0.0 | 0.0 | 0.00 | 0.01 | 0.00 | 90 | 1011.9 |
| 20260901141323 | 57 | 157 | 0.0 | 0.0 | 0.00 | 0.01 | 0.00 | 90 | 1011.9 |
| 20260901140825 | 57 | 144 | 0.0 | 0.0 | 0.00 | 0.01 | 0.00 | 90 | 1011.9 |
| 20260901140331 | 57 | 323 | 0.0 | 1.0 | 0.00 | 0.01 | 0.00 | 90 | 1011.9 |
| 20260901135815 | 57 | 159 | 0.0 | 1.0 | 0.00 | 0.01 | 0.00 | 90 | 1011.8 |
| 20260901135314 | 57 | 276 | 0.0 | 0.0 | 0.00 | 0.01 | 0.00 | 90 | 1011.8 |
| 20260901134824 | 57 | 55 | 0.0 | 1.0 | 0.00 | 0.01 | 0.00 | 90 | 1011.7 |
| 20260901134320 | 57 | 22 | 0.0 | 0.0 | 0.00 | 0.01 | 0.00 | 90 | 1011.7 |
| 20260901133823 | 57 | 162 | 0.0 | 0.0 | 0.00 | 0.01 | 0.00 | 90 | 1011.7 |
| 20260901133329 | 57 | 331 | 0.0 | 0.0 | 0.00 | 0.01 | 0.00 | 90 | 1011.7 |
| 20260901132832 | 57 | 121 | 0.0 | 0.0 | 0.00 | 0.01 | 0.00 | 90 | 1011.7 |
| 20260901132338 | 57 | 121 | 0.0 | 0.0 | 0.00 | 0.01 | 0.00 | 90 | 1011.7 |
| 20260901131821 | 57 | 331 | 0.0 | 1.0 | 0.00 | 0.01 | 0.00 | 90 | 1011.7 |
| 20260901131319 | 57 | 112 | 0.0 | 1.0 | 0.00 | 0.01 | 0.00 | 90 | 1011.7 |
| 20260901130829 | 57 | 246 | 0.0 | 1.0 | 0.00 | 0.01 | 0.00 | 90 | 1011.6 |
| 20260901130328 | 57 | 308 | 0.0 | 0.0 | 0.00 | 0.01 | 0.00 | 90 | 1011.6 |